Theta_e
310 310 311 309 309 310 310 310 308 309 309 315 319 325 330 331 325 322 321 323 323 324 325 327 329 331 332 332 334 336 340 342 343 349 351 352 352 354 356 356 355 356 356 355
307 310 311 309 310 310 311 309 310 311 312 315 321 321 318 318 320 320 321 322 324 325 326 326 327 329 330 330 331 333 334 334 338 340 343 344 345 346 348 352 355 354 352 352
304 306 307 305 309 310 310 311 312 310 314 315 315 315 316 319 320 320 321 322 322 323 324 324 324 326 326 327 329 330 330 332 333 336 337 339 340 341 341 342 346 348 350 349
304 306 299 308 313 313 311 310 314 315 313 315 315 318 319 321 321 321 321 321 322 322 323 324 325 325 327 328 329 329 329 330 332 333 333 335 335 336 338 339 340 342 343 346
305 304 305 308 310 311 311 310 314 313 313 315 317 318 317 321 322 321 321 322 322 323 323 325 325 325 326 326 326 327 327 328 330 330 331 331 331 332 334 335 336 338 340 343
305 303 300 310 314 317 316 308 315 315 314 315 315 311 314 320 321 320 322 322 322 322 323 323 324 325 324 324 324 322 323 325 327 328 329 329 330 331 333 334 332 334 337 340
304 304 306 312 315 317 306 309 316 316 316 315 313 315 319 320 320 320 320 320 322 322 322 324 325 324 320 319 315 319 319 320 320 320 318 323 329 331 331 331 332 331 330 335
306 305 302 316 315 311 317 316 316 317 317 317 317 319 319 318 317 318 318 319 321 321 322 321 320 318 316 313 315 314 314 313 314 314 314 314 317 319 326 329 329 330 328 328
311 311 313 315 315 316 317 317 318 319 319 320 319 318 317 316 316 317 318 319 320 318 317 318 317 315 311 313 314 313 314 315 315 315 314 313 313 312 315 323 325 323 326 327
311 311 312 314 316 317 319 320 320 321 321 320 318 316 315 316 316 316 317 317 317 315 313 313 315 313 313 314 315 313 312 312 312 311 311 312 312 312 312 314 319 322 322 323
309 311 313 314 318 319 320 320 319 319 319 318 317 315 315 315 315 315 312 311 311 310 310 312 315 314 314 315 314 312 311 311 311 311 310 310 311 311 311 314 314 316 322 324
312 317 317 317 320 321 319 318 318 317 316 317 317 315 315 314 311 309 309 309 309 308 309 311 313 314 314 314 314 312 310 310 309 309 309 311 310 310 310 307 306 304 303 309
317 318 319 320 322 322 319 319 318 318 317 315 316 317 313 309 311 309 311 311 310 309 309 310 311 313 314 316 313 312 309 309 308 309 310 311 311 310 309 312 307 304 304 304
319 320 317 320 318 321 319 318 317 318 317 317 317 312 311 311 312 311 311 313 313 310 309 309 311 312 313 314 314 313 311 308 310 309 308 309 309 311 312 311 311 315 315 310
319 320 321 321 320 319 319 318 316 315 316 315 314 312 311 310 309 311 313 314 313 311 309 308 309 311 314 314 313 315 312 311 312 310 309 308 308 308 309 308 309 311 315 313
319 320 320 319 317 317 317 316 315 314 315 312 311 311 312 313 314 313 314 315 312 309 310 309 308 311 313 314 313 313 311 311 311 311 309 309 308 306 305 305 305 306 307 309
316 315 317 316 317 316 316 316 316 315 312 311 312 313 314 313 313 312 313 315 314 312 311 311 310 311 312 313 312 310 310 310 310 310 310 308 308 307 306 304 304 304 304 306
323 322 322 320 318 316 315 315 316 314 311 313 314 315 313 312 311 312 313 313 313 312 312 313 313 311 310 312 311 310 310 309 309 308 308 307 307 307 306 304 304 303 304 304
322 320 320 319 319 317 316 315 315 314 315 315 314 313 314 313 313 313 313 312 312 311 311 313 312 311 310 310 309 309 308 308 308 308 307 306 305 306 306 304 303 303 303 303
320 320 320 318 318 317 316 317 316 314 315 315 315 313 312 313 312 312 313 311 312 312 315 314 313 312 312 310 307 307 306 306 306 306 306 306 306 305 305 302 302 302 302 301
320 319 318 317 316 317 317 317 315 314 315 315 314 313 312 312 311 311 312 309 314 314 313 313 313 312 312 309 307 305 305 305 304 305 305 305 305 305 304 304 305 304 303 302
320 318 317 317 316 315 316 316 315 315 315 315 313 314 313 312 312 312 314 312 313 309 312 314 314 312 312 308 308 306 305 305 305 304 304 304 304 304 304 304 303 303 303 304
319 319 318 316 314 314 316 316 316 317 316 315 314 314 313 312 312 310 310 316 313 312 312 315 313 311 311 312 311 309 308 307 305 305 304 304 304 303 303 303 303 303 303 302
319 319 317 317 316 316 315 317 318 319 319 316 315 315 313 312 313 316 315 310 307 309 312 314 313 310 308 313 312 312 311 310 308 307 306 299 305 304 304 304 303 303 303 302
320 319 318 317 317 317 320 320 317 318 318 319 318 316 316 315 313 314 314 315 309 311 316 312 309 308 313 315 314 313 313 312 311 309 308 307 306 305 305 304 304 303 303 303
319 318 319 321 319 320 319 314 311 314 314 314 315 316 315 315 315 314 315 311 315 311 314 315 315 315 315 315 315 314 313 313 311 311 308 309 308 307 306 305 304 304 304 303
320 313 320 319 321 319 315 312 312 313 312 313 312 315 316 317 316 312 308 314 314 314 314 314 314 313 315 315 313 314 314 313 307 312 311 310 309 309 307 306 306 305 304 304
Wind_Speed
5 4 4 4 4 3 3 1 5 4 3 6 6 6 8 11 13 14 12 14 13 12 11 10 10 11 11 11 11 11 8 8 9 10 9 10 9 9 8 7 6 6 6 6
5 4 5 5 4 4 4 2 2 2 4 4 8 10 11 11 11 13 12 12 12 11 11 10 10 10 11 11 12 13 12 11 11 9 9 10 11 11 11 11 9 8 8 7
5 3 3 4 3 2 1 1 2 6 5 9 10 11 10 9 11 11 10 10 10 10 11 11 11 11 12 12 12 12 12 12 12 12 12 12 11 10 11 11 11 11 10 9
4 4 5 5 2 5 3 0 4 8 11 8 9 10 9 8 8 8 8 10 10 9 9 10 10 10 11 12 12 13 12 12 12 12 13 13 13 13 13 11 12 11 12 11
4 2 2 4 6 6 4 2 6 12 12 11 11 8 7 6 7 7 7 6 7 8 9 9 10 12 12 12 12 13 13 14 14 14 15 14 15 15 13 12 11 11 12 12
4 4 5 3 7 6 3 6 13 12 14 11 6 5 4 4 6 7 8 8 9 9 9 10 11 11 12 12 12 13 15 16 16 16 16 16 16 15 14 12 11 9 11 12
4 2 1 4 7 8 5 3 15 13 9 8 4 4 7 5 6 6 7 9 9 9 8 9 10 9 10 11 12 13 14 16 16 15 15 17 17 15 14 14 13 11 10 10
3 2 5 8 7 6 4 7 12 10 7 8 10 8 5 4 3 5 6 8 7 7 8 9 10 11 11 11 12 12 12 12 12 13 11 12 15 14 15 14 13 13 11 9
3 2 2 1 2 2 5 10 7 10 8 9 8 5 4 5 5 6 8 8 9 9 10 10 10 10 11 11 11 12 14 15 15 15 14 13 12 12 12 14 10 8 10 10
5 3 2 5 6 5 9 11 10 11 10 7 8 5 4 5 7 7 7 8 9 10 10 10 11 10 10 11 14 15 14 14 12 12 12 12 9 9 10 8 9 7 8 8
3 2 4 4 6 11 13 13 14 11 10 9 7 6 4 5 5 6 7 8 9 9 10 11 12 11 12 13 12 13 12 12 12 10 11 11 10 8 9 12 8 9 10 8
2 11 2 9 12 14 14 13 12 12 10 8 7 6 6 6 6 6 7 7 8 9 10 11 11 11 12 11 12 12 11 10 9 9 10 9 9 8 11 15 17 16 16 13
3 10 6 15 14 12 14 12 10 10 9 9 6 7 8 7 5 4 5 7 9 10 10 11 11 12 13 13 12 11 10 12 9 9 10 10 8 8 9 10 11 14 15 14
13 17 12 13 9 12 14 12 11 10 9 7 8 8 7 5 3 4 6 7 8 9 10 11 12 12 13 14 12 12 11 11 9 9 9 10 10 10 8 8 9 9 8 9
9 0 11 14 15 13 12 12 11 9 9 8 7 6 5 4 4 4 5 6 7 8 9 11 12 14 14 13 14 13 10 10 10 9 9 10 9 9 9 9 9 9 10 9
10 14 16 16 15 13 12 10 10 10 9 8 7 5 4 1 3 4 4 5 6 9 9 10 12 13 13 13 14 11 10 17 14 9 9 10 9 9 9 9 9 9 8 9
18 11 13 12 12 12 10 8 8 10 9 7 6 4 1 3 2 4 6 6 5 6 7 8 10 12 11 12 13 8 8 9 15 9 9 9 9 10 9 9 9 9 8 9
9 11 12 14 13 12 10 9 10 10 8 7 4 2 1 2 3 5 6 6 5 7 8 8 9 11 11 12 12 9 9 9 9 8 9 11 10 8 9 9 9 9 10 10
10 14 11 11 11 10 11 11 10 9 7 5 4 2 0 0 3 4 5 5 6 7 8 8 11 9 10 12 12 8 9 10 10 9 10 10 10 10 11 9 10 10 10 10
13 11 13 12 11 11 12 9 10 8 6 4 2 1 2 0 3 4 4 5 5 4 5 6 7 7 8 9 11 7 9 10 10 10 10 10 10 10 10 10 8 9 9 9
14 13 13 12 11 11 9 10 9 7 5 3 2 0 1 3 4 4 5 5 3 4 7 7 5 5 5 7 6 7 8 9 9 9 9 9 10 10 10 11 11 10 9 8
12 12 12 12 11 10 9 8 6 5 4 3 2 2 3 4 4 5 5 6 5 4 7 6 5 3 5 5 5 6 7 8 7 8 8 8 9 9 9 9 10 10 10 10
11 11 12 12 11 11 9 7 6 5 4 3 2 2 3 4 4 4 6 3 6 7 8 7 6 9 6 5 4 4 5 6 6 6 7 7 7 8 8 9 9 9 9 10
12 11 11 10 9 8 8 6 5 5 4 3 3 3 4 5 5 1 4 8 10 8 9 7 8 8 8 5 5 4 4 4 4 5 6 5 6 6 7 8 9 9 9 9
11 11 11 10 8 6 5 5 4 5 5 5 4 4 5 3 4 6 6 7 8 7 7 5 7 8 6 7 7 6 5 5 4 4 5 5 6 6 6 7 7 8 9 9
12 9 8 8 4 4 4 4 3 2 3 3 3 2 3 3 3 4 4 5 6 7 6 6 6 6 6 6 7 8 8 7 6 5 5 5 5 6 6 7 7 7 7 8
8 6 6 5 3 4 4 3 3 2 2 3 4 4 3 2 2 4 4 5 5 6 6 6 7 6 6 7 7 7 7 7 8 7 6 5 5 5 6 6 6 6 7 7
Wind_Direction
77 114 98 102 134 165 232 359 253 14 220 27 19 43 71 88 93 92 78 71 66 59 51 41 29 16 8 1 354 344 319 304 291 294 291 292 288 283 281 273 242 216 217 224
67 76 112 111 76 99 74 111 277 193 113 58 92 98 81 73 79 75 67 59 51 42 32 28 18 5 356 347 341 343 346 347 339 316 293 286 287 288 292 283 263 247 246 242
133 215 184 171 18 333 128 198 268 207 128 141 118 95 79 80 72 69 58 45 34 26 20 10 356 347 341 337 334 333 336 333 335 336 331 327 316 290 271 271 274 274 258 241
119 190 209 38 322 233 166 185 222 133 144 133 114 106 88 64 71 60 40 29 21 11 2 358 347 346 340 342 342 343 341 338 335 329 321 319 318 313 310 298 273 260 258 253
143 107 8 211 201 188 211 166 189 148 142 141 141 136 96 72 62 56 39 23 8 3 357 352 354 352 346 341 343 344 341 333 330 328 320 313 304 300 298 296 293 279 262 255
159 174 212 98 176 187 171 251 176 168 159 162 181 233 105 93 45 34 21 10 359 355 347 351 349 340 337 338 336 341 336 333 326 320 313 308 307 302 297 289 287 280 278 269
148 183 231 153 142 152 209 17 163 172 168 160 188 38 102 79 43 20 7 358 354 349 344 339 345 350 341 345 360 333 332 325 320 318 315 310 308 300 296 293 288 274 269 267
128 180 233 154 137 215 70 129 143 142 132 117 114 122 120 93 47 17 1 354 357 348 351 357 4 356 357 344 333 324 315 307 301 303 306 308 312 310 301 285 285 284 277 275
247 66 52 156 26 86 123 135 124 123 122 132 132 114 78 47 27 12 9 358 2 1 357 1 358 358 341 330 321 318 318 320 316 308 304 303 301 301 303 305 283 280 289 286
175 147 130 139 114 109 127 116 118 119 120 112 109 94 71 35 21 17 10 9 4 359 356 350 355 344 336 327 325 322 318 311 306 301 298 294 289 292 296 298 304 270 273 278
107 158 139 155 136 126 115 115 110 101 102 106 113 100 81 53 47 35 25 17 11 3 355 350 346 344 336 336 327 318 314 309 312 310 305 297 287 284 284 285 277 288 290 278
196 173 141 158 147 140 131 126 121 121 116 105 108 108 103 91 74 58 36 18 11 5 355 348 341 337 343 335 329 320 324 331 328 318 312 300 294 294 265 261 275 278 271 258
110 135 97 132 134 137 131 133 129 122 122 126 120 112 110 109 87 64 29 17 10 1 353 346 341 337 341 342 329 334 335 332 328 333 332 331 319 311 310 314 262 263 276 266
126 115 109 150 145 138 130 125 120 113 116 121 120 119 117 107 95 37 18 2 355 358 360 353 348 347 345 345 339 351 344 337 344 345 339 339 342 338 327 315 312 312 307 285
138 128 136 124 130 129 131 134 132 135 135 129 124 118 115 102 63 14 349 345 349 358 2 360 356 354 349 347 346 358 358 351 350 346 344 343 342 345 345 342 340 339 335 348
115 117 130 136 138 140 141 146 146 146 143 137 134 126 102 46 330 315 330 350 352 1 357 358 356 351 350 348 348 0 353 356 355 347 348 348 351 353 352 347 345 340 344 347
123 129 139 144 151 152 160 158 151 148 144 144 134 127 61 0 353 360 360 357 349 354 2 356 352 353 350 352 354 2 355 350 0 356 353 354 354 356 354 350 349 346 343 345
137 146 160 157 158 155 150 147 145 145 148 146 145 167 140 45 3 342 344 342 350 9 17 2 351 352 358 356 356 356 356 360 5 1 357 358 357 360 358 351 349 353 351 348
132 135 136 140 144 143 145 147 149 145 150 161 178 163 40 337 322 330 333 337 351 357 12 349 343 346 1 358 354 357 0 1 4 5 3 360 4 3 3 354 348 352 351 350
122 121 125 126 133 142 141 145 147 153 162 170 166 198 247 28 328 323 323 315 301 307 316 324 333 350 355 357 353 4 1 3 360 4 4 357 5 359 358 358 355 350 349 353
131 132 131 134 134 137 140 147 153 160 162 181 206 117 320 318 315 315 308 318 348 321 300 286 315 345 353 350 351 6 7 1 0 358 356 356 352 356 357 357 354 358 352 351
139 136 136 138 142 141 144 149 152 153 170 183 195 220 264 299 302 295 261 262 310 309 308 295 291 317 324 313 358 0 5 2 359 355 355 350 347 347 348 349 348 351 351 353
139 142 144 147 148 143 144 156 172 186 207 208 218 254 277 301 295 296 314 351 298 316 310 296 294 279 286 288 326 343 348 349 347 347 347 345 341 340 338 341 338 343 344 349
139 144 142 139 139 150 166 182 196 210 225 226 250 260 282 305 314 281 292 294 279 302 306 292 290 274 278 283 283 296 305 317 323 330 332 314 336 336 336 334 334 336 337 341
142 142 146 151 166 176 174 187 206 230 230 238 248 253 255 246 272 320 315 313 309 313 328 330 283 277 272 274 277 277 277 278 284 299 309 316 321 326 327 330 330 332 328 334
150 157 161 172 160 163 169 174 201 184 225 259 277 281 273 238 265 289 306 303 308 317 327 325 329 326 309 296 289 282 277 277 267 262 272 287 298 306 316 323 326 329 329 326
145 147 154 162 167 181 187 182 207 234 246 278 290 280 293 283 279 302 309 313 318 320 320 320 318 318 306 297 291 292 280 270 254 263 268 274 284 294 304 312 317 320 321 326